Total_Precipitation_Accumulation
1.92 1.85 1.74 1.63 1.65 1.70 1.79 1.98 2.23 2.11 1.68 1.34 1.32 1.35 1.41 1.55 1.84 1.73 1.60 1.89 1.94 1.96 2.05 2.12 2.07 2.09 2.20 2.27 2.36 2.51 2.63 2.67 2.65 2.62 2.56 2.44 2.42 2.60
1.70 1.74 1.72 1.63 1.62 1.65 1.75 1.87 2.05 2.18 1.98 1.47 1.30 1.36 1.49 1.59 1.86 1.73 1.65 1.87 1.81 1.85 1.84 1.84 1.78 1.78 1.84 1.94 1.95 1.97 2.03 2.16 2.27 2.33 2.43 2.51 2.49 2.51
1.53 1.58 1.58 1.52 1.58 1.59 1.63 1.75 1.88 2.05 2.09 1.68 1.43 1.43 1.56 1.59 1.61 1.53 1.48 1.49 1.47 1.65 1.59 1.58 1.58 1.55 1.55 1.65 1.74 1.75 1.75 1.82 1.96 2.05 2.10 2.20 2.27 2.26
1.41 1.46 1.49 1.50 1.55 1.57 1.63 1.70 1.74 1.82 1.92 1.79 1.52 1.42 1.40 1.37 1.33 1.32 1.29 1.24 1.19 1.42 1.40 1.37 1.37 1.33 1.29 1.31 1.45 1.56 1.55 1.55 1.61 1.68 1.74 1.77 1.84 1.93
1.43 1.43 1.44 1.52 1.57 1.58 1.63 1.68 1.65 1.61 1.59 1.58 1.41 1.25 1.22 1.22 1.27 1.22 1.20 1.20 1.09 1.22 1.31 1.29 1.28 1.22 1.16 1.16 1.22 1.32 1.38 1.38 1.37 1.42 1.51 1.59 1.63 1.70
1.46 1.48 1.47 1.55 1.64 1.67 1.68 1.65 1.61 1.56 1.48 1.45 1.37 1.25 1.19 1.15 1.23 1.25 1.23 1.21 1.15 1.03 1.18 1.22 1.23 1.22 1.15 1.07 1.04 1.04 1.13 1.29 1.34 1.37 1.41 1.44 1.49 1.56
1.39 1.47 1.51 1.62 1.69 1.66 1.55 1.45 1.41 1.41 1.37 1.35 1.29 1.20 1.15 1.14 1.16 1.09 1.07 1.09 1.13 1.06 1.07 1.10 1.09 1.05 1.03 1.05 1.04 1.03 1.06 1.17 1.31 1.37 1.42 1.44 1.43 1.48
1.25 1.30 1.37 1.45 1.38 1.39 1.36 1.30 1.34 1.42 1.40 1.29 1.16 1.03 0.90 0.88 0.90 0.99 1.07 1.19 1.24 1.04 1.01 1.06 1.04 1.08 0.98 0.94 1.06 1.04 1.04 1.15 1.27 1.36 1.42 1.47 1.47 1.46
1.13 1.14 1.12 1.07 1.09 0.97 1.03 1.05 1.06 1.13 1.14 1.11 1.09 0.89 0.77 0.75 0.92 1.06 1.08 1.08 1.00 0.87 0.98 1.15 1.08 1.06 0.93 0.91 1.06 1.04 1.03 1.09 1.22 1.34 1.40 1.46 1.50 1.52
0.91 0.90 0.91 0.87 0.88 0.93 0.94 0.93 0.82 0.76 0.75 0.73 0.73 0.69 0.71 0.80 0.99 1.17 1.21 1.20 1.06 0.94 0.99 1.22 1.11 1.04 0.94 0.89 0.98 0.98 1.01 1.06 1.14 1.27 1.38 1.42 1.44 1.49
0.72 0.72 0.76 0.75 0.85 1.01 1.01 0.94 0.83 0.74 0.74 0.79 0.82 0.82 0.90 0.99 1.09 1.28 1.45 1.60 1.48 1.15 0.99 1.07 1.01 0.98 1.01 0.98 1.00 1.05 1.01 1.02 1.06 1.15 1.27 1.38 1.41 1.47
0.60 0.63 0.74 0.78 0.92 1.08 1.06 1.01 0.94 0.79 0.75 0.79 0.79 0.78 0.77 0.83 0.96 1.00 1.17 1.54 1.56 1.30 0.92 0.97 1.00 1.13 1.39 1.11 1.01 1.05 1.05 1.06 1.10 1.13 1.19 1.31 1.43 1.49
0.64 0.61 0.64 0.81 0.92 1.04 1.11 1.04 0.99 0.94 0.88 0.89 0.88 0.85 0.83 0.85 0.86 0.85 0.92 1.23 1.54 1.32 0.87 1.12 1.32 1.24 1.50 1.27 1.05 1.05 1.02 1.01 1.08 1.18 1.22 1.28 1.42 1.55
0.69 0.58 0.58 0.77 0.91 0.98 0.99 1.02 1.09 1.09 0.98 0.97 0.97 0.94 0.89 0.86 0.83 0.82 0.85 0.93 1.06 1.09 0.90 1.20 1.64 1.45 1.65 1.46 1.12 1.06 1.01 0.99 1.02 1.10 1.20 1.35 1.43 1.54
0.67 0.70 0.75 0.84 0.89 0.89 0.91 0.97 1.00 0.96 0.97 0.98 0.91 0.81 0.74 0.74 0.80 0.88 0.94 0.98 1.01 1.00 0.98 1.04 1.30 1.42 1.71 1.74 1.30 1.03 1.05 1.08 1.06 1.12 1.22 1.35 1.41 1.52
0.73 0.75 0.78 0.83 0.87 0.88 0.91 0.90 0.89 0.92 0.97 0.94 0.82 0.75 0.75 0.80 0.88 0.92 1.01 1.08 1.22 1.15 1.02 0.96 1.04 1.37 1.65 1.39 1.34 1.21 1.05 1.17 1.14 1.21 1.30 1.34 1.35 1.38
0.92 0.92 0.84 0.80 0.84 0.85 0.84 0.83 0.86 0.91 0.96 0.91 0.91 0.90 0.89 0.89 0.91 0.91 1.02 1.13 1.23 1.08 0.99 0.99 1.06 1.19 1.34 1.39 1.44 1.22 1.09 1.10 1.11 1.26 1.48 1.57 1.45 1.40
1.06 0.98 0.83 0.75 0.74 0.75 0.78 0.81 0.84 0.87 0.89 0.95 1.01 1.04 1.06 1.04 1.03 1.00 1.07 1.20 1.21 1.02 0.96 1.00 1.17 1.43 1.45 1.32 1.20 1.10 1.08 1.10 1.12 1.25 1.48 1.76 1.59 1.32
0.99 0.82 0.70 0.69 0.70 0.72 0.76 0.80 0.83 0.83 0.92 1.04 1.10 1.10 1.14 1.17 1.16 1.15 1.14 1.21 1.21 1.11 1.04 1.06 1.31 1.78 1.91 1.34 1.00 0.93 1.09 1.21 1.25 1.34 1.42 1.60 1.64 1.36
0.84 0.73 0.69 0.69 0.73 0.78 0.83 0.87 0.88 0.90 0.99 1.06 1.08 1.11 1.19 1.29 1.31 1.23 1.19 1.23 1.27 1.24 1.19 1.13 1.24 1.62 2.05 1.67 1.30 0.94 0.93 1.23 1.55 1.62 1.39 1.31 1.35 1.31
0.74 0.73 0.73 0.76 0.80 0.85 0.90 0.93 0.98 1.01 1.01 1.07 1.09 1.09 1.18 1.35 1.32 1.16 1.19 1.25 1.35 1.35 1.26 1.06 0.99 1.20 1.65 2.05 1.78 1.10 0.99 1.06 1.35 1.80 1.88 1.87 1.66 1.44
0.76 0.79 0.80 0.85 0.91 0.95 0.98 1.02 1.05 1.03 1.04 1.09 1.09 1.10 1.17 1.32 1.33 1.22 1.24 1.33 1.29 1.24 1.18 1.06 1.08 1.32 1.73 2.07 1.61 1.07 1.01 1.05 1.11 1.21 1.50 2.00 2.52 2.23
0.89 0.91 0.90 0.92 0.97 1.02 1.04 1.05 1.05 1.00 0.99 1.07 1.10 1.13 1.20 1.29 1.24 1.25 1.26 1.29 1.37 1.39 1.37 1.32 1.25 1.32 1.41 1.47 1.46 1.23 1.09 1.05 1.05 1.09 1.16 1.19 1.27 1.37